KD2VWU Weather Reports


Display with metric or nautical units.
time (UTC)temp
F
wind
direction
speed
MPH
gust
MPH
rain 1hr
in
rain 24hr
in
rain mn
in
humidity
%
barometer
mb
20260901160758 70 79 0.0 0.0 0.00 0.76 0.76 99 1012.7
20260901160254 70 333 0.0 1.0 0.00 0.76 0.76 99 1013.1
20260901155753 70 95 0.0 0.0 0.00 0.76 0.76 99 1012.9
20260901155248 70 63 0.0 0.0 0.00 0.76 0.76 99 1013.2
20260901154744 70 354 0.0 1.0 0.05 0.76 0.76 99 1013.2
20260901154238 70 226 0.0 0.0 0.12 0.76 0.76 99 1013.0
20260901153733 70 81 0.0 0.0 0.07 0.75 0.75 99 1013.3
20260901153233 70 92 0.0 0.0 0.00 0.74 0.74 99 1013.4
20260901152732 69 82 0.0 0.0 0.05 0.74 0.74 99 1013.1
20260901152231 69 265 0.0 0.0 0.05 0.74 0.74 99 1013.3
20260901151726 70 308 0.0 0.0 0.00 0.73 0.73 99 1013.1
20260901151221 69 264 0.0 0.0 0.07 0.73 0.73 99 1013.1
20260901150720 69 159 0.0 0.0 0.07 0.73 0.73 99 1012.9
20260901150218 69 320 0.0 0.0 0.00 0.72 0.72 99 1013.0
20260901145717 69 340 0.0 1.0 0.00 0.72 0.72 99 1012.8
20260901145211 69 47 0.0 0.0 0.00 0.72 0.72 99 1012.8
20260901144707 69 111 0.0 0.0 0.05 0.72 0.72 99 1012.9
20260901144202 69 185 0.0 0.0 0.05 0.72 0.72 99 1012.8
20260901143657 69 142 0.0 1.0 0.00 0.71 0.71 99 1012.8
20260901143153 69 87 0.0 0.0 0.00 0.71 0.71 99 1013.1
20260901142649 69 133 0.0 0.0 0.00 0.71 0.71 99 1012.8
20260901142148 69 80 0.0 0.0 0.07 0.71 0.71 99 1013.2
20260901141643 69 63 0.0 0.0 0.14 0.71 0.71 99 1013.0
20260901141143 69 64 0.0 0.0 0.07 0.70 0.70 99 1013.1
20260901140642 69 79 0.0 0.0 0.00 0.69 0.69 99 1013.2
20260901140141 69 26 0.0 0.0 0.00 0.69 0.69 99 1013.5
20260901135636 69 65 0.0 0.0 0.00 0.69 0.69 99 1013.3
20260901135131 69 59 0.0 0.0 0.05 0.69 0.69 99 1013.2
20260901134627 69 49 0.0 0.0 0.12 0.69 0.69 99 1013.2
20260901134122 69 129 0.0 0.0 0.12 0.68 0.68 99 1013.3
20260901133621 69 29 0.0 0.0 0.05 0.67 0.67 99 1013.1
20260901133119 69 93 0.0 0.0 0.00 0.66 0.66 99 1012.8
20260901132614 69 81 0.0 0.0 0.12 0.66 0.66 99 1013.1
20260901132114 68 72 0.0 0.0 0.19 0.66 0.66 99 1013.2
20260901131614 68 72 0.0 0.0 0.07 0.64 0.64 99 1013.5
20260901131108 68 50 0.0 0.0 0.00 0.63 0.63 99 1013.6
20260901130603 68 67 0.0 0.0 0.00 0.63 0.63 99 1013.5
20260901125600 68 69 0.0 0.0 0.00 0.63 0.63 99 1013.4
20260901125055 68 71 0.0 0.0 0.00 0.63 0.63 99 1013.3
20260901124550 68 56 0.0 0.0 0.00 0.63 0.63 99 1013.2
20260901124045 68 56 0.0 0.0 0.00 0.63 0.63 99 1013.1
20260901123540 69 67 0.0 0.0 0.00 0.63 0.63 99 1013.2
20260901123039 69 70 0.0 0.0 0.00 0.63 0.63 99 1013.1
20260901122538 68 63 0.0 0.0 0.00 0.63 0.63 99 1013.1
20260901122037 68 98 0.0 0.0 0.00 0.63 0.63 99 1013.0
20260901121532 68 66 0.0 0.0 0.00 0.63 0.63 99 1013.2
20260901121022 68 45 0.0 0.0 0.00 0.63 0.63 99 1013.3
20260901120522 68 114 0.0 0.0 0.00 0.63 0.63 99 1013.2
20260901120017 68 43 0.0 0.0 0.00 0.63 0.63 99 1013.1
20260901115512 68 93 0.0 0.0 0.00 0.63 0.63 99 1013.2
20260901115009 68 94 0.0 0.0 0.00 0.63 0.63 99 1013.1
20260901114505 68 64 0.0 0.0 0.00 0.63 0.63 99 1013.1
20260901114003 68 116 0.0 0.0 0.00 0.63 0.63 99 1013.1
20260901113502 68 56 0.0 0.0 0.00 0.63 0.63 99 1013.5
20260901112957 68 15 0.0 0.0 0.00 0.63 0.63 99 1013.7
20260901112452 68 76 0.0 0.0 0.05 0.63 0.63 99 1013.0
20260901111947 68 60 0.0 0.0 0.05 0.63 0.63 99 1013.2
20260901111446 68 42 0.0 0.0 0.00 0.62 0.62 99 1013.3
20260901110944 68 91 0.0 1.0 0.00 0.62 0.62 99 1013.0
20260901110440 67 79 0.0 0.0 0.00 0.62 0.62 99 1013.2
20260901105936 67 96 0.0 0.0 0.00 0.62 0.62 99 1013.1
20260901105432 67 102 0.0 0.0 0.00 0.62 0.62 99 1013.3
20260901104927 67 322 0.0 1.0 0.00 0.62 0.62 99 1013.6
20260901104422 67 90 0.0 0.0 0.00 0.62 0.62 99 1013.3
20260901103918 67 137 0.0 0.0 0.00 0.62 0.62 99 1013.4
20260901103418 67 111 0.0 0.0 0.00 0.62 0.62 99 1013.3
20260901102913 67 125 0.0 0.0 0.00 0.62 0.62 99 1013.3
20260901102407 67 96 0.0 0.0 0.00 0.62 0.62 99 1013.5
20260901101902 67 171 0.0 1.0 0.00 0.62 0.62 99 1013.4
20260901101357 67 47 0.0 0.0 0.00 0.62 0.62 99 1013.3
20260901100856 67 0 0.0 0.0 0.00 0.62 0.62 99 1013.1
20260901100351 67 39 0.0 0.0 0.00 0.62 0.62 99 1013.1
20260901095850 67 339 0.0 1.0 0.00 0.62 0.62 99 1013.2
20260901095348 67 12 0.0 0.0 0.00 0.62 0.62 99 1013.2
20260901094842 67 36 0.0 0.0 0.00 0.62 0.62 99 1013.0
20260901094337 67 105 0.0 0.0 0.00 0.62 0.62 99 1013.2
20260901093832 67 64 0.0 0.0 0.00 0.62 0.62 99 1013.2
20260901093331 67 85 0.0 0.0 0.00 0.62 0.62 99 1013.3
20260901092827 67 67 0.0 0.0 0.00 0.62 0.62 99 1013.3
20260901092323 67 61 0.0 0.0 0.00 0.62 0.62 99 1013.3
20260901091819 67 64 0.0 0.0 0.00 0.62 0.62 99 1013.5
20260901091318 67 69 0.0 0.0 0.00 0.62 0.62 99 1013.2
20260901090814 67 37 0.0 0.0 0.00 0.62 0.62 99 1013.2
20260901090308 67 62 0.0 0.0 0.00 0.62 0.62 99 1013.3
20260901085804 67 93 0.0 0.0 0.00 0.62 0.62 99 1013.2
20260901085259 67 68 0.0 0.0 0.00 0.62 0.62 99 1013.3
20260901084756 67 47 0.0 0.0 0.00 0.62 0.62 99 1013.6
20260901084252 67 24 0.0 0.0 0.00 0.62 0.62 99 1013.4
20260901083752 67 63 0.0 0.0 0.00 0.62 0.62 99 1013.6
20260901083252 67 339 0.0 0.0 0.00 0.62 0.62 99 1013.6
20260901082750 67 48 0.0 0.0 0.07 0.62 0.62 99 1013.4
20260901082245 67 203 0.0 0.0 0.07 0.62 0.62 99 1013.7
20260901081741 67 206 0.0 0.0 0.05 0.61 0.61 99 1013.6
20260901081240 67 172 0.0 0.0 0.05 0.61 0.61 99 1013.8
20260901080736 67 172 1.0 1.0 0.00 0.60 0.60 99 1013.8
20260901080234 67 339 0.0 1.0 0.00 0.60 0.60 99 1013.9
20260901075729 67 75 0.0 0.0 0.00 0.60 0.60 99 1013.8
20260901075224 67 54 0.0 0.0 0.00 0.60 0.60 99 1014.1
20260901074718 67 65 0.0 0.0 0.00 0.60 0.60 99 1013.9
20260901074214 67 79 0.0 0.0 0.00 0.60 0.60 99 1014.2
20260901073710 67 359 0.0 0.0 0.00 0.60 0.60 99 1013.9
20260901073205 67 70 0.0 0.0 0.07 0.60 0.60 99 1014.0
20260901072700 67 67 0.0 0.0 0.38 0.60 0.60 99 1014.0
20260901072155 67 67 0.0 0.0 0.35 0.59 0.59 99 1014.1
20260901071655 67 66 0.0 0.0 0.17 0.56 0.56 99 1014.1
20260901071155 67 60 0.0 0.0 0.00 0.53 0.53 99 1014.0
20260901070649 67 60 0.0 0.0 0.00 0.53 0.53 99 1014.2
20260901070144 67 68 0.0 0.0 0.07 0.53 0.53 99 1014.2
20260901065643 67 66 0.0 0.0 0.07 0.53 0.53 99 1014.2
20260901065138 67 67 0.0 0.0 0.00 0.52 0.52 99 1014.0
20260901064635 67 80 0.0 0.0 0.05 0.52 0.52 99 1014.0
20260901064131 67 75 0.0 0.0 0.12 0.52 0.52 99 1014.2
20260901063628 67 75 0.0 0.0 0.19 0.51 0.51 99 1014.4
20260901063124 67 49 0.0 0.0 0.12 0.50 0.50 99 1014.3
20260901062620 67 55 0.0 0.0 0.00 0.48 0.48 99 1014.3
20260901062116 67 59 0.0 0.0 0.00 0.48 0.48 99 1014.3
20260901061612 67 63 0.0 0.0 0.00 0.48 0.48 99 1014.3
20260901061111 67 54 0.0 0.0 0.05 0.48 0.48 99 1014.1
20260901060606 67 61 0.0 0.0 0.05 0.48 0.48 99 1014.4
20260901055556 68 59 0.0 0.0 0.14 0.47 0.47 99 1014.3
20260901055054 68 53 1.0 1.0 0.38 0.47 0.47 99 1014.4
20260901054550 68 60 0.0 0.0 0.35 0.45 0.45 99 1014.3
20260901054046 68 57 0.0 0.0 0.35 0.41 0.41 99 1014.5
20260901053542 68 52 0.0 0.0 0.38 0.38 0.38 99 1014.3
20260901053038 68 71 0.0 0.0 0.66 0.35 0.35 99 1014.6
20260901052538 68 94 0.0 0.0 0.71 0.32 0.32 99 1014.4
20260901052032 68 70 0.0 0.0 0.38 0.25 0.25 99 1014.8
20260901051527 68 40 0.0 0.0 0.42 0.20 0.20 99 1014.7
20260901051026 68 70 0.0 0.0 0.40 0.19 0.19 99 1014.8
20260901050521 68 52 0.0 0.0 0.31 0.16 0.16 99 1015.0
20260901050017 68 48 0.0 0.0 0.12 0.12 0.12 99 1014.9
20260901045512 68 73 0.0 0.0 0.12 0.11 0.11 99 1015.0
20260901045006 68 53 0.0 0.0 0.19 0.10 0.10 99 1014.9
20260901044502 68 71 0.0 0.0 0.24 0.09 0.09 99 1014.9
20260901043958 68 78 0.0 0.0 0.19 0.07 0.07 99 1015.0
20260901043453 68 73 0.0 0.0 0.12 0.05 0.05 99 1014.8
20260901042948 68 53 0.0 0.0 0.05 0.04 0.04 99 1015.1
20260901042448 68 79 0.0 0.0 0.12 0.03 0.03 99 1014.9
20260901041943 68 72 0.0 0.0 0.12 0.03 0.03 99 1015.0
20260901041438 68 72 0.0 0.0 0.07 0.01 0.01 99 1015.1
20260901040937 68 70 0.0 0.0 0.07 0.01 0.01 99 1015.1
20260901040432 68 60 0.0 0.0 0.07 0.01 0.01 99 1015.2
20260901035926 68 53 0.0 0.0 0.00 0.00 0.00 99 1015.1
20260901035425 68 71 0.0 0.0 0.00 0.00 0.00 99 1015.2
20260901034923 68 98 0.0 0.0 0.00 0.00 0.00 99 1015.0
20260901034418 68 130 0.0 0.0 0.00 0.00 0.00 99 1014.8
20260901033913 68 37 0.0 0.0 0.00 0.00 0.00 99 1014.9
20260901033413 68 79 0.0 0.0 0.00 0.00 0.00 99 1015.0
20260901032911 68 28 0.0 0.0 0.00 0.00 0.00 98 1015.1
20260901032410 68 55 0.0 0.0 0.00 0.00 0.00 98 1015.1
20260901031906 69 69 0.0 0.0 0.00 0.00 0.00 97 1015.1
20260901031402 69 54 0.0 0.0 0.00 0.00 0.00 97 1015.0
20260901030901 69 31 0.0 0.0 0.00 0.00 0.00 97 1015.2
20260901030356 69 96 0.0 0.0 0.00 0.00 0.00 96 1015.2
20260901025855 69 110 0.0 1.0 0.00 0.00 0.00 96 1015.2
20260901025350 69 111 0.0 0.0 0.00 0.00 0.00 97 1015.4
20260901024845 69 201 0.0 0.0 0.00 0.00 0.00 97 1015.4
20260901024344 69 201 0.0 0.0 0.00 0.00 0.00 97 1015.3
20260901023843 69 201 0.0 0.0 0.00 0.00 0.00 97 1015.4
20260901023338 69 201 0.0 0.0 0.00 0.00 0.00 97 1015.6
20260901022833 69 197 0.0 0.0 0.00 0.00 0.00 97 1015.5
20260901022329 69 197 0.0 0.0 0.00 0.00 0.00 97 1015.4
20260901021824 69 74 0.0 0.0 0.00 0.00 0.00 97 1015.5
20260901021320 69 75 0.0 0.0 0.00 0.00 0.00 97 1015.6
20260901020814 69 76 0.0 0.0 0.00 0.00 0.00 97 1015.7
20260901020309 69 63 0.0 0.0 0.00 0.00 0.00 97 1015.5
20260901015804 69 75 0.0 0.0 0.00 0.00 0.00 97 1015.5
20260901015301 69 75 0.0 0.0 0.00 0.00 0.00 97 1015.5
20260901014759 69 75 0.0 0.0 0.00 0.00 0.00 96 1015.7
20260901014255 69 58 0.0 0.0 0.00 0.00 0.00 96 1015.7
20260901013751 69 75 0.0 0.0 0.00 0.00 0.00 97 1015.8
20260901013246 69 63 0.0 0.0 0.00 0.00 0.00 97 1015.7
20260901012742 69 75 0.0 0.0 0.00 0.00 0.00 97 1015.6
20260901012241 69 75 0.0 0.0 0.00 0.00 0.00 97 1015.7
20260901011737 69 56 0.0 0.0 0.00 0.00 0.00 97 1015.8
20260901011232 69 82 0.0 0.0 0.00 0.00 0.00 96 1015.6
20260901010726 69 82 0.0 0.0 0.00 0.00 0.00 96 1015.6
20260901010221 69 75 0.0 0.0 0.00 0.00 0.00 96 1015.8
20260901005720 69 75 0.0 0.0 0.00 0.00 0.00 95 1015.7
20260901005216 69 74 0.0 0.0 0.00 0.00 0.00 95 1015.7
20260901004715 69 75 0.0 0.0 0.00 0.00 0.00 95 1015.5
20260901004209 69 76 0.0 0.0 0.00 0.00 0.00 95 1015.6
20260901003704 69 76 0.0 0.0 0.00 0.00 0.00 95 1015.7
20260901003203 69 76 0.0 0.0 0.00 0.00 0.00 94 1015.5
20260901002657 69 75 0.0 0.0 0.00 0.00 0.00 94 1015.5
20260901002152 69 75 0.0 0.0 0.00 0.00 0.00 94 1015.6
20260901001648 69 93 0.0 0.0 0.00 0.00 0.00 94 1015.5
20260901001143 69 90 0.0 0.0 0.00 0.00 0.00 94 1015.5
20260901000638 69 56 0.0 0.0 0.00 0.00 0.00 94 1015.2
20260901000133 70 91 0.0 0.0 0.00 0.00 0.00 94 1015.2
20260831235627 70 355 0.0 0.0 0.00 0.00 0.00 93 1015.2
20260831235123 70 87 0.0 0.0 0.00 0.00 0.00 93 1015.3
20260831234621 70 81 0.0 0.0 0.00 0.00 0.00 92 1015.3
20260831234118 70 175 0.0 0.0 0.00 0.00 0.00 92 1015.4
20260831233612 70 175 0.0 0.0 0.00 0.00 0.00 92 1015.4
20260831233108 70 53 0.0 0.0 0.00 0.00 0.00 91 1015.6
20260831232603 70 43 0.0 0.0 0.00 0.00 0.00 91 1015.6
20260831232059 70 72 0.0 0.0 0.00 0.00 0.00 91 1015.6
20260831231555 70 115 0.0 0.0 0.00 0.00 0.00 90 1015.6
20260831231050 71 59 0.0 0.0 0.00 0.00 0.00 90 1015.7
20260831230546 71 52 0.0 0.0 0.00 0.00 0.00 89 1015.7
20260831230040 71 85 0.0 0.0 0.00 0.00 0.00 90 1015.6
20260831225535 71 8 0.0 0.0 0.00 0.00 0.00 89 1015.8
20260831225030 71 265 0.0 1.0 0.00 0.00 0.00 88 1015.6
20260831224525 71 120 0.0 0.0 0.00 0.00 0.00 89 1015.7
20260831224020 71 250 1.0 1.0 0.00 0.00 0.00 89 1016.0
20260831223515 71 57 0.0 0.0 0.00 0.00 0.00 88 1015.8
20260831223012 71 283 0.0 1.0 0.00 0.00 0.00 88 1015.9
20260831222508 71 71 0.0 0.0 0.00 0.00 0.00 88 1015.9
20260831222007 71 52 0.0 0.0 0.00 0.00 0.00 88 1015.9
20260831221503 71 68 0.0 0.0 0.00 0.00 0.00 88 1015.9
20260831220958 71 57 1.0 1.0 0.00 0.00 0.00 87 1015.8
20260831220454 72 150 1.0 1.0 0.00 0.00 0.00 87 1015.7
20260831215949 72 80 0.0 0.0 0.00 0.00 0.00 86 1016.0
20260831215444 72 61 0.0 0.0 0.00 0.00 0.00 86 1015.8
20260831214940 72 17 0.0 0.0 0.00 0.00 0.00 86 1015.7
20260831214437 72 107 0.0 0.0 0.00 0.00 0.00 86 1015.7
20260831213933 72 106 0.0 1.0 0.00 0.00 0.00 85 1015.8
20260831213430 73 79 0.0 0.0 0.00 0.00 0.00 85 1015.8
20260831212929 73 92 0.0 0.0 0.00 0.00 0.00 85 1015.8
20260831212426 73 61 0.0 0.0 0.00 0.00 0.00 82 1015.8
20260831211925 74 61 0.0 0.0 0.00 0.00 0.00 82 1015.7
20260831211420 74 79 0.0 0.0 0.00 0.00 0.00 81 1015.7
20260831210914 74 72 0.0 0.0 0.00 0.00 0.00 80 1015.7
20260831210409 74 112 1.0 1.0 0.00 0.00 0.00 79 1015.7
20260831205905 74 91 0.0 0.0 0.00 0.00 0.00 80 1015.6
20260831205400 74 73 0.0 0.0 0.00 0.00 0.00 79 1015.8
20260831204855 74 88 0.0 0.0 0.00 0.00 0.00 79 1015.8
20260831204354 74 14 0.0 0.0 0.00 0.00 0.00 76 1015.8
20260831203853 74 144 0.0 0.0 0.00 0.00 0.00 79 1015.7
20260831203343 74 32 0.0 0.0 0.00 0.00 0.00 78 1015.6
20260831202841 75 254 1.0 1.0 0.00 0.00 0.00 75 1015.4
20260831202337 75 312 0.0 1.0 0.00 0.00 0.00 75 1015.6
20260831201836 75 151 0.0 1.0 0.00 0.00 0.00 76 1015.5
20260831201335 75 264 0.0 0.0 0.00 0.00 0.00 78 1015.7
20260831200831 74 92 0.0 0.0 0.00 0.00 0.00 78 1015.8
20260831200326 75 86 0.0 0.0 0.00 0.00 0.00 80 1015.8
20260831195821 75 84 0.0 0.0 0.00 0.00 0.00 76 1015.8
20260831195317 75 84 0.0 0.0 0.00 0.00 0.00 76 1016.1
20260831194812 75 79 0.0 0.0 0.00 0.00 0.00 78 1016.0
20260831194307 75 88 0.0 0.0 0.00 0.00 0.00 75 1016.1
20260831193806 75 53 0.0 0.0 0.00 0.00 0.00 76 1016.2
20260831193301 76 179 1.0 1.0 0.00 0.00 0.00 79 1016.3
20260831192756 76 216 1.0 1.0 0.00 0.00 0.00 72 1016.1
20260831192252 77 53 0.0 0.0 0.00 0.00 0.00 71 1016.5
20260831191748 76 54 0.0 0.0 0.00 0.00 0.00 71 1016.4
20260831191244 76 155 0.0 0.0 0.00 0.00 0.00 75 1016.4
20260831190738 77 56 0.0 0.0 0.00 0.00 0.00 72 1016.5
20260831190233 78 304 2.0 2.0 0.00 0.00 0.00 72 1016.6
20260831185727 78 5 0.0 0.0 0.00 0.00 0.00 69 1016.7
20260831185223 78 73 1.0 1.0 0.00 0.00 0.00 70 1016.7
20260831184722 77 54 0.0 0.0 0.00 0.00 0.00 72 1016.7
20260831184218 78 15 1.0 1.0 0.00 0.00 0.00 71 1016.7
20260831183717 78 196 1.0 2.0 0.00 0.00 0.00 70 1016.6
20260831183212 78 94 0.0 0.0 0.00 0.00 0.00 68 1016.7
20260831182711 79 301 0.0 1.0 0.00 0.00 0.00 72 1016.7
20260831182206 78 61 0.0 0.0 0.00 0.00 0.00 69 1016.6
20260831181701 77 95 0.0 0.0 0.00 0.00 0.00 72 1016.8
20260831181156 78 68 0.0 0.0 0.00 0.00 0.00 71 1017.0
20260831180651 77 322 1.0 1.0 0.00 0.00 0.00 68 1017.0
20260831180146 76 42 0.0 0.0 0.00 0.00 0.00 68 1017.2
20260831175645 76 59 0.0 0.0 0.00 0.00 0.00 67 1017.3
20260831175143 76 31 0.0 0.0 0.00 0.00 0.00 73 1017.3
20260831174637 75 267 0.0 0.0 0.00 0.00 0.00 67 1017.1
20260831174132 75 113 0.0 0.0 0.00 0.00 0.00 72 1017.2
20260831173630 75 122 1.0 1.0 0.00 0.00 0.00 74 1017.5
20260831173126 75 86 0.0 0.0 0.00 0.00 0.00 77 1017.4
20260831172621 75 252 0.0 0.0 0.00 0.00 0.00 67 1017.4
20260831172120 76 112 0.0 0.0 0.00 0.00 0.00 72 1017.1
20260831171615 76 66 0.0 0.0 0.00 0.00 0.00 68 1017.3
20260831171113 77 64 0.0 0.0 0.00 0.00 0.00 67 1017.2
20260831170609 77 114 0.0 1.0 0.00 0.00 0.00 71 1017.1
20260831170106 77 29 0.0 1.0 0.00 0.00 0.00 68 1016.9
20260831165602 79 54 0.0 0.0 0.00 0.00 0.00 71 1017.0
20260831165058 80 210 1.0 2.0 0.00 0.00 0.00 73 1017.2
20260831164554 78 74 0.0 0.0 0.00 0.00 0.00 75 1017.3
20260831164049 77 335 0.0 0.0 0.00 0.00 0.00 70 1017.0
20260831163544 77 189 0.0 0.0 0.00 0.00 0.00 72 1017.3
20260831163039 76 40 0.0 1.0 0.00 0.00 0.00 75 1017.4
20260831162538 76 334 1.0 1.0 0.00 0.00 0.00 74 1017.5
20260831162036 75 82 0.0 1.0 0.00 0.00 0.00 79 1017.3
20260831161533 76 105 1.0 1.0 0.00 0.00 0.00 76 1017.6